"Pseudo-MPEC" for A11aVIq

Created 2024 Sep 25 22:22:02 UT using Find_Orb

Click here for an explanation of pseudo-MPECs

 
 Astrometry: 
     A11aVIq 1C2024 09 07.29612 22 15 20.83 +05 03 16.1    ~9P1M       VNEOCP703
     A11aVIq 1C2024 09 07.29841 22 16 00.98 +05 05 33.7    ~9P1M       VNEOCP703
     A11aVIq 1C2024 09 07.30072 22 16 41.40 +05 07 48.5    ~9P1M       VNEOCP703
     A11aVIq* C2024 09 07ApgNhTIY2vE4Kuq:w_k]opTY=H'2@sS7a(Yo+9''9pAstrometryT05
     A11aVIq  C2024 09 07Vg3S$juNx/FFjXgc2redacted;X$n7My*UZw5PEr)Rx-BN6A76g'T05
     A11aVIq  C2024 09 07n.DZ@#N2PM_b:Ol0td9M=IEjDclick\2=Ot;/;^MIeC.'7]t!28:T05
     A11aVIq  C2024 09 079Uobhere9-6ts-ImIXbApij63S=J6kL*@;9iXn]?*W88Z_;l\ckMT05
     A11aVIq  C2024 09 07SXp]pbcMF]B_MSd?for8explanationu1*UKEGM'dr.=Qhhh9PQfT05

Station data:
(703) Catalina Sky Survey  (N32.417029 W110.732640)  US/Arizona.  Observer E.
   J. Christensen. 0.68 m Schmidt + 10K CCD.
(T05) ATLAS-HKO, Haleakala  (N20.707551 W156.257010)  US/Hawaii.  Observers
   L. Denneau, A. Heinze, H. Weiland, J. Tonry, H. Flewelling, A.
   Fitzsimmons, D. Young, B. Stalder. Measurers L. Denneau, A. Heinze, J.
   Tonry. 0.5-m f/2.0 Schmidt + CCD.

Orbital elements:  A11aVIq
   Perigee 2024 Sep 6.92946 +/- 0.00289 TT = 22:18:25 (JD 2460560.42946)
Epoch 2024 Sep  7.0 TT = JDT 2460560.5                           AutoNEOCP
M  22.22547629 +/- 1.1              (J2000 equator)
n 315.07092664 +/- 4.28             Peri.  239.81413 +/- 0.8
a 46166.9608 +/- 418                Node   292.11100 +/- 0.08
e   0.7001072 +/- 0.00107           Incl.   10.89392 +/- 0.020
P1645.313m/1.143d          H 33.45  G  0.15   U 13.7
q 13845.1383 +/- 156    Q 78488.7833 +/- 687
From 8 observations 2024 Sept. 7 (80.8 min); mean residual 1".88
Residuals in arcseconds: 
240907 703  .46-  .63-    240907 T05  3.0-  .31-    240907 T05  2.5-  .64-    
240907 703  .09-  .81+    240907 T05  2.4+  1.2+    240907 T05  4.6+  .36+    
240907 703  1.7+  .15-    240907 T05  2.8-  .61-    

Ephemerides (geocentric):
Date (UTC) HH   RA             Dec           delta  r     elong  mag " sig PA
---- --------  ------------   ------------  ------ ------ -----  --- --------
2024 09 25 22  00 12 51.392   +10 17 50.23   75358 1.0032 170.9 17.6  20d  87
2024 09 25 23  00 27 35.033   +10 28 55.03   73110 1.0031 169.9 17.6  20d  87
2024 09 26 00  00 43 24.416   +10 37 58.66   70206 1.0031 167.6 17.6  21d  88
2024 09 26 01  01 00 47.195   +10 44 29.73   66605 1.0030 164.5 17.6  22d  89
2024 09 26 02  01 20 23.518   +10 47 29.89   62251 1.0030 160.4 17.5  24d  90
2024 09 26 03  01 43 15.950   +10 45 09.23   57067 1.0029 155.4 17.5  26d  91
2024 09 26 04  02 11 10.524   +10 33 47.75   50949 1.0029 148.9 17.4  29d  92
2024 09 26 05  02 47 27.530   +10 05 17.81   43761 1.0028 140.4 17.4  35d  94
2024 09 26 06  03 39 27.259   +08 58 34.60   35332 1.0027 127.9 17.2  44d  96
2024 09 26 07  05 07 24.276   +06 04 46.70   25585 1.0026 106.3 17.2  62d  99
2024 09 26 08  08 25 38.873   -02 56 06.94   15891 1.0025  56.7 18?? 108d 100
2024 09 26 09  14 44 34.332   -10 08 11.00   16081 1.0024  38.8 20?? 163d  86
2024 09 26 10  18 01 00.712   -03 49 43.41   25844 1.0025  87.0 17.9 121d  80
2024 09 26 11  19 26 06.470   +00 08 18.05   35562 1.0026 108.3 17.8 107d  79
2024 09 26 12  20 16 09.105   +02 29 58.62   43959 1.0026 120.8 17.9 105d  80
2024 09 26 13  20 51 06.779   +04 04 51.30   51119 1.0027 129.5 18.0 113d  80
2024 09 26 14  21 18 05.424   +05 14 03.75   57212 1.0027 136.1 18.1 139d  81
2024 09 26 15  21 40 17.089   +06 07 36.98   62374 1.0028 141.5 18.1 146d  81
2024 09 26 16  21 59 23.053   +06 50 50.67   66709 1.0028 146.1 18.1  77d  82
2024 09 26 17  22 16 23.010   +07 26 50.73   70292 1.0028 150.2 18.1  51d  82
2024 09 26 18  22 31 55.308   +07 57 32.82   73179 1.0029 153.8 18.1  39d  83
2024 09 26 19  22 46 26.440   +08 24 12.66   75412 1.0029 157.1 18.1  32d  83
2024 09 26 20  23 00 15.978   +08 47 41.60   77020 1.0029 160.2 18.0  28d  84
2024 09 26 21  23 13 39.390   +09 08 35.28   78023 1.0029 163.1 17.9  25d  84
2024 09 26 22  23 26 49.792   +09 27 18.53   78434 1.0029 165.8 17.9  24d  85
2024 09 26 23  23 39 59.179   +09 44 08.09   78257 1.0029 168.1 17.8  22d  85
2024 09 27 00  23 53 19.419   +09 59 14.17   77491 1.0029 170.1 17.7  22d  86
2024 09 27 01  00 07 03.220   +10 12 40.81   76125 1.0028 171.2 17.6  21d  86
2024 09 27 02  00 21 25.261   +10 24 25.38   74144 1.0028 171.1 17.5  21d  87
2024 09 27 03  00 36 43.731   +10 34 16.61   71521 1.0028 169.6 17.5  22d  88
2024 09 27 04  00 53 22.708   +10 41 50.53   68221 1.0028 167.0 17.5  23d  89
2024 09 27 05  01 11 56.190   +10 46 22.02   64193 1.0027 163.3 17.5  24d  89
2024 09 27 06  01 33 15.538   +10 46 27.23   59370 1.0027 158.7 17.5  26d  90
2024 09 27 07  01 58 44.576   +10 39 23.45   53662 1.0026 152.9 17.4  29d  92
2024 09 27 08  02 30 53.954   +10 19 27.48   46945 1.0025 145.4 17.4  34d  93
2024 09 27 09  03 14 52.135   +09 32 53.40   39060 1.0024 134.9 17.3  41d  95
2024 09 27 10  04 23 23.249   +07 39 18.40   29854 1.0023 118.2 17.2  54d  98
2024 09 27 11  06 38 16.472   +02 06 33.92   19667 1.0022  84.6 17.5  84d 101
2024 09 27 12  12 07 08.937   -10 13 02.52   13957 1.0021   8.7 31?? 162d  93
2024 09 27 13  17 00 58.555   -06 18 27.46   21483 1.0022  71.0 18.4 131d  81
2024 09 27 14  18 56 50.942   -01 14 02.14   31609 1.0022  99.9 17.9 108d  79
2024 09 27 15  19 57 45.994   +01 39 28.45   40574 1.0023 115.2 17.9 101d  79
2024 09 27 16  20 37 49.749   +03 30 18.22   48237 1.0024 125.2 18.0 102d  80
2024 09 27 17  21 07 38.572   +04 48 32.88   54762 1.0024 132.6 18.1 114d  80
2024 09 27 18  21 31 35.235   +05 47 43.69   60303 1.0024 138.4 18.1 147d  81
2024 09 27 19  21 51 50.368   +06 34 42.75   64978 1.0025 143.4 18.1 129d  81
2024 09 27 20  22 09 37.725   +07 13 21.41   68871 1.0025 147.6 18.1  71d  82
2024 09 27 21  22 25 43.091   +07 45 59.89   72046 1.0025 151.4 18.1  49d  83